Time,TemperatureF,DewpointF,PressureIn,WindDirection,WindDirectionDegrees,WindSpeedMPH,WindSpeedGustMPH,Humidity,HourlyPrecipIn,Conditions,Clouds,dailyrainin,SoftwareType,DateUTC
2013-05-25 17:10:00,73.5,55.0,30.16,NW,304,0.0,-999.0,52,-99.99,,,0.00,weatherlink.com 1.10,2013-05-25 21:10:00,
2013-05-25 17:23:00,73.6,56.0,30.16,NE,36,0.0,-999.0,54,-99.99,,,0.00,weatherlink.com 1.10,2013-05-25 21:23:00,
2013-05-25 17:38:00,73.8,56.0,30.16,NNE,13,0.0,-999.0,54,-99.99,,,0.00,weatherlink.com 1.10,2013-05-25 21:38:00,
2013-05-25 17:53:00,73.2,56.0,30.16,NNW,346,0.0,-999.0,55,-99.99,,,0.00,weatherlink.com 1.10,2013-05-25 21:53:00,
2013-05-25 18:08:00,72.6,56.0,30.17,ENE,58,0.0,-999.0,57,-99.99,,,0.00,weatherlink.com 1.10,2013-05-25 22:08:00,
2013-05-25 18:23:00,71.9,56.0,30.17,NNE,15,0.0,-999.0,57,-99.99,,,0.00,weatherlink.com 1.10,2013-05-25 22:23:00,
2013-05-25 18:38:00,71.4,56.0,30.16,SSE,150,0.0,-999.0,58,-99.99,,,0.00,weatherlink.com 1.10,2013-05-25 22:38:00,
2013-05-25 18:53:00,70.9,56.0,30.16,NNE,32,0.0,-999.0,59,-99.99,,,0.00,weatherlink.com 1.10,2013-05-25 22:53:00,
2013-05-25 19:08:00,70.2,56.0,30.16,NNE,31,0.0,-999.0,61,-99.99,,,0.00,weatherlink.com 1.10,2013-05-25 23:08:00,
2013-05-25 19:23:00,69.5,55.0,30.17,South,186,0.0,-999.0,61,-99.99,,,0.00,weatherlink.com 1.10,2013-05-25 23:23:00,
2013-05-25 19:38:00,68.8,56.0,30.17,NNE,13,0.0,-999.0,63,-99.99,,,0.00,weatherlink.com 1.10,2013-05-25 23:38:00,
2013-05-25 19:53:00,68.0,56.0,30.17,NNE,13,0.0,-999.0,65,-99.99,,,0.00,weatherlink.com 1.10,2013-05-25 23:53:00,
2013-05-25 20:08:00,67.2,56.0,30.17,NE,49,0.0,-999.0,67,-99.99,,,0.00,weatherlink.com 1.10,2013-05-26 00:08:00,
2013-05-25 20:23:00,66.1,56.0,30.17,NE,49,0.0,-999.0,69,-99.99,,,0.00,weatherlink.com 1.10,2013-05-26 00:23:00,
2013-05-25 20:38:00,65.1,55.0,30.17,North,360,0.0,-999.0,71,-99.99,,,0.00,weatherlink.com 1.10,2013-05-26 00:38:00,
2013-05-25 20:53:00,64.2,55.0,30.18,North,360,0.0,-999.0,73,-99.99,,,0.00,weatherlink.com 1.10,2013-05-26 00:53:00,
2013-05-25 21:08:00,63.3,55.0,30.18,North,360,0.0,-999.0,75,-99.99,,,0.00,weatherlink.com 1.10,2013-05-26 01:08:00,
2013-05-25 21:23:00,62.6,55.0,30.17,North,360,0.0,-999.0,76,-99.99,,,0.00,weatherlink.com 1.10,2013-05-26 01:23:00,
2013-05-25 21:38:00,62.1,55.0,30.18,North,360,0.0,-999.0,78,-99.99,,,0.00,weatherlink.com 1.10,2013-05-26 01:38:00,
2013-05-25 21:53:00,61.6,55.0,30.18,North,360,0.0,-999.0,79,-99.99,,,0.00,weatherlink.com 1.10,2013-05-26 01:53:00,
2013-05-25 22:09:00,61.3,55.0,30.18,North,360,0.0,-999.0,79,-99.99,,,0.00,weatherlink.com 1.10,2013-05-26 02:09:00,
2013-05-25 22:24:00,61.1,55.0,30.18,North,360,0.0,-999.0,80,-99.99,,,0.00,weatherlink.com 1.10,2013-05-26 02:24:00,
2013-05-25 22:39:00,60.7,55.0,30.18,North,360,0.0,-999.0,81,-99.99,,,0.00,weatherlink.com 1.10,2013-05-26 02:39:00,
2013-05-25 22:54:00,60.4,55.0,30.19,North,360,0.0,-999.0,81,-99.99,,,0.00,weatherlink.com 1.10,2013-05-26 02:54:00,
2013-05-25 23:09:00,60.0,55.0,30.18,North,360,0.0,-999.0,82,-99.99,,,0.00,weatherlink.com 1.10,2013-05-26 03:09:00,
2013-05-25 23:24:00,59.7,55.0,30.18,North,360,0.0,-999.0,83,-99.99,,,0.00,weatherlink.com 1.10,2013-05-26 03:24:00,
2013-05-25 23:39:00,59.3,55.0,30.18,North,360,0.0,-999.0,84,-99.99,,,0.00,weatherlink.com 1.10,2013-05-26 03:39:00,